Regional Weather Roundup
Issued by NWS

Home | Current Version | Previous Version | Graphics & Text | Print | Product List | Glossary On
Versions: 1 2 3 4 5 6 7 8 9 10 11 12 13 14 15 16 17 18 19 20 21 22 23 24 25 26 27 28 29 30 31 32 33 34 35 36 37 38 39 40 41 42 43 44 45 46 47 48 49 50
570
ASUS43 KIND 191600
RWRIN

WEATHER ROUNDUP FOR INDIANA
NATIONAL WEATHER SERVICE INDIANAPOLIS IN
1200 PM EDT TUE SEP 19 2017

NOTE: "FAIR" INDICATES FEW OR NO CLOUDS BELOW 12,000 FEET WITH NO
SIGNIFICANT WEATHER AND/OR OBSTRUCTIONS TO VISIBILITY.

* - STATION DOES NOT REPORT WEATHER SUCH AS PRECIPITATION OR FOG.

+ - STATION NOT QUALITY CONTROLLED BY THE NATIONAL WEATHER SERVICE.
    USE DATA WITH CAUTION...ESPECIALLY DEWPOINT AND RELATIVE
    HUMIDITY OBSERVATIONS.

INZ001>003-010>013-019-020-191700-
NORTHWEST INDIANA

CITY           SKY/WX    TMP DP  RH WIND       PRES   REMARKS
GARY /AIRPORT/ PTSUNNY   73  66  78 CALM      29.97S
KNOX *+        CLOUDY    68  66  94 E3        29.96R
MICHIGAN CITY+ CLOUDY    72  64  78 E5        29.97S
RENSSELAER +   CLOUDY    68  63  83 W3        29.97S

$$

LMZ046-743>745-191700-
SOUTHERN LAKE MICHIGAN

STATION/POSITION TIME  TEMP    WIND        PRES    WAVE
                       AIR SEA DIR/SP/G            HT
                 (UTC) (F)     (DEG/KT/KT) (MB)    (FT)
BURNS HARBOR     1540   68     330/  6/  7 1015.2R
MICHIGAN CITY    1530   69     340/  6/  6   N/A
5NW MICH CITY    1550   68 69  360/  6/  8   N/A     1

$$

INZ004-005-014>016-021>024-191700-
NORTH CENTRAL INDIANA

CITY           SKY/WX    TMP DP  RH WIND       PRES   REMARKS
ELKHART        CLOUDY    68  66  94 NE5       29.98S
GOSHEN         LGT RAIN  70  64  81 E3        29.97S
SOUTH BEND     CLOUDY    67  67 100 E7        29.98R FOG
WARSAW +       CLOUDY    70  68  94 SE3       29.97R

$$

INZ006>009-017-018-025>027-191700-
NORTHEAST INDIANA

CITY           SKY/WX    TMP DP  RH WIND       PRES   REMARKS
FORT WAYNE     CLOUDY    73  68  84 SE7       29.97S
KENDALLVILLE + CLOUDY    69  67  94 SE6       29.97F

$$

INZ028-029-035-036-043>045-051>053-191700-
WEST CENTRAL INDIANA

CITY           SKY/WX    TMP DP  RH WIND       PRES   REMARKS
LAFAYETTE      CLOUDY    71  69  93 VRB5      29.96S
TERRE HAUTE    CLOUDY    73  67  81 SW8       29.98S

$$

INZ030>032-037>040-046>048-054>057-064-065-191700-
CENTRAL INDIANA

CITY           SKY/WX    TMP DP  RH WIND       PRES   REMARKS
ANDERSON       MOSUNNY   70  66  88 S12       29.99R
COLUMBUS       PTSUNNY   68  66  94 S6        30.00F
GREENWOOD *+   CLOUDY    73  71  93 S6        30.00S
INDIANAPOLIS   CLOUDY    71  68  90 SW13      29.97F
-EAGLE CREEK   CLOUDY    70  67  90 SW7       29.97F
KOKOMO +       CLOUDY    72  68  87 SW13      29.98R
MT COMFORT *+    N/A    N/A N/A N/A MISG        N/A
SHELBYVILLE    LGT RAIN  70  66  87 S9        29.99R

$$

INZ033-034-041-042-049-050-058-059-191700-
EAST CENTRAL INDIANA

CITY           SKY/WX    TMP DP  RH WIND       PRES   REMARKS
MUNCIE         CLOUDY    73  67  81 SW8       29.98R
RICHMOND +     LGT RAIN  66  66 100 SW5       30.02R

$$

INZ060-061-067>069-081>083-085>088-191700-
SOUTHWEST INDIANA

CITY           SKY/WX    TMP DP  RH WIND       PRES   REMARKS
EVANSVILLE     CLOUDY    72  69  90 CALM      29.99F FOG
HUNTINGBURG +    N/A    N/A N/A N/A MISG        N/A

$$

INZ062-063-066-070>080-084-089>092-191700-
SOUTH CENTRAL AND SOUTHEAST INDIANA

CITY           SKY/WX    TMP DP  RH WIND       PRES   REMARKS
BLOOMINGTON    MOSUNNY   74  67  78 S5        29.98F
MADISON *+     CLOUDY    68  64  88 SE3       30.04F
SEYMOUR +      CLOUDY    72  66  83 SE6       29.99F

$$





USA.gov is the U.S. government's official web portal to all federal, state and local government web resources and services.